Weather History for KEWB - January, 2013

Change the Weather History Date:

Sunday, January 6, 2013

  Actual Average Record
Temperature  
Mean Temperature 32 °F -  
Max Temperature 41 °F 37 °F 60 °F (2007)
Min Temperature 24 °F 23 °F 6 °F (1959)
Degree Days  
Heating Degree Days 32    
Moisture  
Dew Point 28 °F    
Average Humidity 85    
Maximum Humidity 100    
Minimum Humidity 67    
Precipitation  
Precipitation 0.02 in - - ()
Sea Level Pressure  
Sea Level Pressure 30.05 in    
Wind  
Wind Speed 2 mph (WSW)    
Max Wind Speed 14 mph    
Max Gust Speed 21 mph    
Visibility 6 miles    
Events Snow    
Averages and records for this station are not official NWS values.
T = Trace of Precipitation, MM = Missing Value Source: NWS Daily Summary

Daily Weather History Graph

Daily Weather History Graph

Search for Another Location

Airport or City:

Trip Planner

Search our weather history database for the weather conditions in past years. The results will help you decide how hot, cold, wet, or windy it might be!

Date:

Astronomy

Jan. 06, 2013 Rise Set
Actual Time 7:10 AM EST 4:29 PM EST
Civil Twilight 6:39 AM EST 5:00 PM EST
Nautical Twilight 6:05 AM EST 5:34 PM EST
Astronomical Twilight 5:31 AM EST 6:08 PM EST
Moon 1:19 AM EST 11:55 AM EST
Length of Visible Light 10h 20m
Length of Day
9h 18m
Waning Crescent, 33% of the Moon is Illuminated
Jan 6
Waning Crescent
Jan 11
New
Jan 18
First Quarter
Jan 26
Full
Feb 3
Last Quarter

Hourly Weather History & Observations

Time (EST) Temp. Windchill Dew Point Humidity Pressure Visibility Wind Dir Wind Speed Gust Speed Precip Events Conditions
12:53 AM 24.1 °F - 19.9 °F 84% 30.19 in 10.0 mi Calm Calm - N/A   Clear
1:53 AM 25.0 °F - 21.9 °F 88% 30.22 in 10.0 mi Calm Calm - N/A   Partly Cloudy
2:53 AM 27.0 °F - 24.1 °F 89% 30.20 in 10.0 mi Calm Calm - N/A   Overcast
3:53 AM 28.0 °F - 24.1 °F 85% 30.17 in 10.0 mi Calm Calm - N/A   Overcast
4:53 AM 28.9 °F - 24.1 °F 82% 30.14 in 8.0 mi Calm Calm - N/A   Overcast
5:16 AM 28.4 °F - 24.8 °F 86% 30.12 in 2.0 mi Calm Calm - 0.00 in Snow Light Snow
5:24 AM 28.4 °F - 24.8 °F 86% 30.12 in 1.5 mi Calm Calm - 0.00 in Snow Light Snow
5:53 AM 28.9 °F - 26.1 °F 89% 30.12 in 1.2 mi Calm Calm - 0.01 in Snow Light Snow
6:07 AM 30.2 °F - 26.6 °F 86% 30.11 in 1.5 mi Calm Calm - 0.00 in Snow Light Snow
6:17 AM 28.4 °F - 26.6 °F 93% 30.11 in 2.0 mi Calm Calm - 0.00 in Snow Light Snow
6:26 AM 30.2 °F - 28.4 °F 93% 30.12 in 1.5 mi Calm Calm - 0.00 in Snow Light Snow
6:53 AM 30.0 °F - 28.9 °F 96% 30.10 in 1.5 mi Calm Calm - 0.01 in Snow Light Snow
7:51 AM 32.0 °F 26.4 °F 30.2 °F 93% 30.10 in 5.0 mi WSW 5.8 mph - 0.00 in   Overcast
7:53 AM 32.0 °F 26.4 °F 30.0 °F 92% 30.11 in 5.0 mi WSW 5.8 mph - 0.00 in   Overcast
8:53 AM 33.1 °F 27.7 °F 30.9 °F 92% 30.10 in 4.0 mi SW 5.8 mph - N/A   Overcast
9:53 AM 36.0 °F 27.5 °F 30.0 °F 79% 30.09 in 6.0 mi WSW 12.7 mph 18.4 mph N/A   Haze
10:53 AM 37.0 °F 29.3 °F 30.9 °F 79% 30.05 in 7.0 mi WSW 11.5 mph - N/A   Overcast
11:53 AM 39.0 °F 31.0 °F 30.9 °F 73% 30.00 in 10.0 mi WSW 13.8 mph 20.7 mph N/A   Scattered Clouds
12:31 PM 39.2 °F 32.5 °F 32.0 °F 75% 29.98 in 10.0 mi WSW 10.4 mph 19.6 mph N/A   Mostly Cloudy
12:38 PM 39.2 °F 32.0 °F 30.2 °F 70% 29.98 in 10.0 mi WSW 11.5 mph - N/A   Scattered Clouds
12:53 PM 39.0 °F 31.4 °F 30.9 °F 73% 29.98 in 10.0 mi West 12.7 mph - N/A   Mostly Cloudy
1:53 PM 39.9 °F 35.8 °F 32.0 °F 73% 29.97 in 10.0 mi WSW 5.8 mph - N/A   Scattered Clouds
2:53 PM 41.0 °F 34.7 °F 30.9 °F 67% 29.96 in 10.0 mi West 10.4 mph - N/A   Clear
3:53 PM 39.0 °F 34.8 °F 30.0 °F 70% 29.95 in 10.0 mi SSW 5.8 mph - N/A   Clear
4:53 PM 36.0 °F 33.3 °F 28.9 °F 76% 29.96 in 10.0 mi WSW 3.5 mph - N/A   Clear
5:53 PM 30.0 °F - 27.0 °F 88% 29.97 in 10.0 mi Calm Calm - N/A   Clear
6:53 PM 28.9 °F - 27.0 °F 92% 29.98 in 7.0 mi Calm Calm - N/A   Scattered Clouds
7:53 PM 28.0 °F - 26.1 °F 92% 29.98 in 6.0 mi Calm Calm - N/A   Mostly Cloudy
8:53 PM 28.4 °F - 26.6 °F 93% 29.98 in 6.0 mi Calm Calm - N/A   Mostly Cloudy
9:53 PM 27.0 °F - 25.0 °F 92% 29.98 in 5.0 mi Calm Calm - N/A   Mostly Cloudy
10:53 PM 28.0 °F - 26.1 °F 92% 29.98 in 4.0 mi Calm Calm - N/A   Overcast
11:31 PM 26.6 °F - 26.6 °F 100% 29.97 in 2.0 mi Calm Calm - N/A   Partly Cloudy
11:53 PM 27.0 °F - 25.0 °F 92% 29.97 in 1.0 mi Calm Calm - N/A   Clear